When you browse on this site, cookies collect data to enhance your experience and personalize the content and advertising you see.
Visit our Privacy Policy to learn more. By continuing to use the site, you agree to this use of cookies and data.
  • In Hungary
  • List of Countries
  • For 7 days
  • Water Temperature
  • Weather Map
  • News
  • Weather Widgets
  • user-avatar
    Login

    Hourly Weather Buczki

    Today, 14 December, Saturday

    Time Temperature Precipitation Wind Pressure Humidity
    00:00 +1°C° 0 mm 6 mps 734 mmHg 85%
    01:00 +1°C° 0 mm 6 mps 735 mmHg 86%
    02:00 +1°C° 0 mm 6 mps 734 mmHg 87%
    03:00 +1°C° 0 mm 6 mps 734 mmHg 88%
    04:00 -1°C° 0 mm 6 mps 734 mmHg 89%
    05:00 +1°C° 0 mm 6 mps 734 mmHg 89%
    06:00 +1°C° 0 mm 6 mps 735 mmHg 90%
    07:00 +1°C° 0 mm 6 mps 735 mmHg 90%
    08:00 0°C° 0 mm 7 mps 735 mmHg 89%
    09:00 0°C° 0 mm 7 mps 735 mmHg 87%
    10:00 0°C° 0 mm 7 mps 735 mmHg 86%
    11:00 +2°C° 0 mm 7 mps 735 mmHg 85%
    12:00 +2°C° 0 mm 7 mps 735 mmHg 84%
    13:00 +2°C° 0 mm 7 mps 735 mmHg 83%
    14:00 +2°C° 0 mm 6 mps 735 mmHg 84%
    15:00 +2°C° 0 mm 6 mps 735 mmHg 85%
    16:00 +2°C° 0 mm 5 mps 735 mmHg 86%
    17:00 +2°C° 0 mm 5 mps 735 mmHg 87%
    18:00 +2°C° 0 mm 5 mps 735 mmHg 88%
    19:00 +2°C° 0 mm 5 mps 735 mmHg 88%
    20:00 +2°C° 0.1 mm 6 mps 735 mmHg 90%
    21:00 +2°C° 0.1 mm 6 mps 735 mmHg 91%
    22:00 +2°C° 0.1 mm 6 mps 735 mmHg 92%
    23:00 +2°C° 0.6 mm 6 mps 735 mmHg 90%

    Tomorrow, 15 December, Sunday

    Time Temperature Precipitation Wind Pressure Humidity
    00:00 +2°C° 0.6 mm 6 mps 736 mmHg 88%
    01:00 0°C° 0.6 mm 7 mps 737 mmHg 85%
    02:00 +1°C° 0 mm 6 mps 737 mmHg 84%
    03:00 +1°C° 0 mm 6 mps 738 mmHg 83%
    04:00 +1°C° 0 mm 6 mps 739 mmHg 82%
    05:00 +1°C° 0 mm 6 mps 739 mmHg 82%
    06:00 0°C° 0 mm 5 mps 740 mmHg 82%
    07:00 -1°C° 0 mm 5 mps 741 mmHg 83%
    08:00 0°C° 0 mm 5 mps 741 mmHg 84%
    09:00 0°C° 0 mm 5 mps 741 mmHg 85%
    10:00 +1°C° 0 mm 5 mps 742 mmHg 86%
    11:00 +1°C° 0 mm 5 mps 742 mmHg 83%
    12:00 +2°C° 0 mm 5 mps 742 mmHg 81%
    13:00 +2°C° 0 mm 5 mps 742 mmHg 78%
    14:00 +2°C° 0.4 mm 6 mps 741 mmHg 81%
    15:00 +2°C° 0.4 mm 6 mps 741 mmHg 83%
    16:00 +2°C° 0.4 mm 7 mps 740 mmHg 86%
    17:00 +3°C° 0.7 mm 7 mps 740 mmHg 84%
    18:00 +4°C° 0.7 mm 8 mps 741 mmHg 82%
    19:00 +5°C° 0.7 mm 8 mps 741 mmHg 80%
    20:00 +4°C° 0 mm 8 mps 742 mmHg 77%
    21:00 +3°C° 0 mm 7 mps 743 mmHg 73%
    22:00 +2°C° 0 mm 7 mps 744 mmHg 70%
    23:00 +2°C° 0 mm 6 mps 745 mmHg 72%

    Day after tomorrow, 16 December, Monday

    Time Temperature Precipitation Wind Pressure Humidity
    00:00 +1°C° 0 mm 6 mps 746 mmHg 73%
    01:00 +1°C° 0 mm 6 mps 747 mmHg 75%
    02:00 0°C° 0 mm 5 mps 747 mmHg 77%
    03:00 0°C° 0 mm 5 mps 748 mmHg 79%
    04:00 0°C° 0 mm 4 mps 748 mmHg 81%
    05:00 -1°C° 0 mm 4 mps 749 mmHg 83%
    06:00 -1°C° 0 mm 4 mps 749 mmHg 84%
    07:00 -1°C° 0 mm 4 mps 749 mmHg 86%
    08:00 -1°C° 0 mm 4 mps 750 mmHg 83%
    09:00 0°C° 0 mm 4 mps 750 mmHg 80%
    10:00 +1°C° 0 mm 3 mps 751 mmHg 77%
    11:00 +2°C° 0 mm 3 mps 751 mmHg 76%
    12:00 +2°C° 0 mm 3 mps 750 mmHg 76%
    13:00 +3°C° 0 mm 3 mps 750 mmHg 75%
    14:00 +2°C° 0 mm 3 mps 750 mmHg 80%
    15:00 +2°C° 0 mm 3 mps 750 mmHg 85%
    16:00 +2°C° 0 mm 3 mps 750 mmHg 90%
    17:00 +2°C° 0 mm 3 mps 750 mmHg 91%
    18:00 +2°C° 0 mm 3 mps 750 mmHg 92%
    19:00 +2°C° 0 mm 3 mps 750 mmHg 93%
    20:00 +2°C° 0 mm 3 mps 750 mmHg 92%
    21:00 +2°C° 0 mm 3 mps 749 mmHg 91%
    22:00 +2°C° 0 mm 3 mps 749 mmHg 90%
    23:00 +2°C° 0 mm 3 mps 749 mmHg 90%

    17 December, Tuesday

    Time Temperature Precipitation Wind Pressure Humidity
    00:00 +2°C° 0 mm 3 mps 749 mmHg 90%
    01:00 +2°C° 0 mm 3 mps 749 mmHg 90%
    02:00 +2°C° 0 mm 3 mps 748 mmHg 90%
    03:00 +2°C° 0 mm 3 mps 748 mmHg 91%
    04:00 +2°C° 0 mm 3 mps 748 mmHg 91%
    05:00 +2°C° 0 mm 3 mps 748 mmHg 91%
    06:00 +2°C° 0 mm 3 mps 748 mmHg 91%
    07:00 +2°C° 0 mm 3 mps 748 mmHg 92%
    08:00 +2°C° 0 mm 3 mps 748 mmHg 90%
    09:00 +3°C° 0 mm 3 mps 748 mmHg 89%
    10:00 +3°C° 0 mm 3 mps 748 mmHg 88%
    11:00 +4°C° 0 mm 3 mps 748 mmHg 87%
    12:00 +4°C° 0 mm 3 mps 748 mmHg 85%
    13:00 +5°C° 0 mm 3 mps 747 mmHg 84%
    14:00 +4°C° 0 mm 3 mps 747 mmHg 86%
    15:00 +4°C° 0 mm 3 mps 747 mmHg 88%
    16:00 +3°C° 0 mm 3 mps 747 mmHg 90%
    17:00 +3°C° 0 mm 3 mps 747 mmHg 91%
    18:00 +3°C° 0 mm 3 mps 747 mmHg 91%
    19:00 +3°C° 0 mm 2 mps 747 mmHg 92%
    20:00 +3°C° 0 mm 2 mps 747 mmHg 92%
    21:00 +3°C° 0 mm 2 mps 747 mmHg 92%
    22:00 +3°C° 0 mm 2 mps 747 mmHg 92%
    23:00 +3°C° 0 mm 2 mps 747 mmHg 92%

    18 December, Wednesday

    Time Temperature Precipitation Wind Pressure Humidity
    00:00 +3°C° 0 mm 2 mps 747 mmHg 91%
    01:00 +3°C° 0 mm 2 mps 747 mmHg 91%
    02:00 +3°C° 0 mm 2 mps 747 mmHg 91%
    03:00 +4°C° 0 mm 2 mps 746 mmHg 92%
    04:00 +4°C° 0 mm 2 mps 746 mmHg 92%
    05:00 +4°C° 0 mm 2 mps 746 mmHg 93%
    06:00 +4°C° 0 mm 2 mps 746 mmHg 93%
    07:00 +4°C° 0 mm 2 mps 746 mmHg 94%
    08:00 +4°C° 0 mm 2 mps 747 mmHg 95%
    09:00 +4°C° 0 mm 2 mps 747 mmHg 95%
    10:00 +4°C° 0 mm 2 mps 747 mmHg 95%
    11:00 +4°C° 0 mm 3 mps 747 mmHg 93%
    12:00 +4°C° 0 mm 3 mps 747 mmHg 90%
    13:00 +4°C° 0 mm 3 mps 747 mmHg 87%
    14:00 +5°C° 0 mm 2 mps 747 mmHg 88%
    15:00 +4°C° 0 mm 2 mps 748 mmHg 89%
    16:00 +4°C° 0 mm 2 mps 748 mmHg 90%
    17:00 +4°C° 0 mm 2 mps 748 mmHg 91%
    18:00 +3°C° 0 mm 2 mps 748 mmHg 91%
    19:00 +3°C° 0 mm 2 mps 748 mmHg 92%
    20:00 +3°C° 0 mm 2 mps 749 mmHg 92%
    21:00 +3°C° 0 mm 2 mps 749 mmHg 93%
    22:00 +3°C° 0 mm 2 mps 749 mmHg 93%
    23:00 +3°C° 0 mm 2 mps 749 mmHg 94%

    19 December, Thursday

    Time Temperature Precipitation Wind Pressure Humidity
    00:00 +3°C° 0 mm 2 mps 749 mmHg 95%
    01:00 +3°C° 0 mm 2 mps 749 mmHg 95%
    02:00 +4°C° 0 mm 1 mps 749 mmHg 95%
    03:00 +4°C° 0 mm 1 mps 749 mmHg 95%
    04:00 +4°C° 0 mm 1 mps 749 mmHg 95%
    05:00 +4°C° 0 mm 1 mps 749 mmHg 95%
    06:00 +4°C° 0 mm 1 mps 749 mmHg 94%
    07:00 +4°C° 0 mm 1 mps 749 mmHg 93%
    08:00 +4°C° 0 mm 2 mps 749 mmHg 92%
    09:00 +4°C° 0 mm 2 mps 750 mmHg 91%
    10:00 +4°C° 0 mm 2 mps 750 mmHg 89%
    11:00 +5°C° 0 mm 2 mps 750 mmHg 88%
    12:00 +5°C° 0 mm 2 mps 750 mmHg 86%
    13:00 +5°C° 0 mm 2 mps 750 mmHg 85%
    14:00 +4°C° 0 mm 2 mps 750 mmHg 87%
    15:00 +3°C° 0 mm 2 mps 750 mmHg 90%
    16:00 +3°C° 0 mm 1 mps 750 mmHg 92%
    17:00 +3°C° 0 mm 1 mps 751 mmHg 93%
    18:00 +3°C° 0 mm 1 mps 751 mmHg 93%
    19:00 +2°C° 0 mm 1 mps 751 mmHg 94%
    20:00 +2°C° 0 mm 1 mps 751 mmHg 94%
    21:00 +2°C° 0 mm 1 mps 751 mmHg 94%
    22:00 +2°C° 0 mm 1 mps 751 mmHg 94%
    23:00 +1°C° 0 mm 1 mps 751 mmHg 94%
    Show more